[[{"header":{"parameterUnit":"m.s-1","parameterCategory":1,"la1":30.2991,"la2":30.254,"lo1":-89.0895,"lo2":-89.0444,"dy":0.0017,"dx":0.0017,"nx":28,"ny":28,"refTime":"2024-04-08T09:00:00:Z","depth":0,"parameterNumber":2,"parameterNumberName":"U-component_of_WINDS"},"data":[0,0,0,0,0,0,0,0,0,0,0,0,0,0,0,0,0,0,0,0,0,0,0,0,0,0,0,0,0,0,0,0,0,0,0,0,0,0,0,0,0,0,0,0,0,0,0,0,0,0,0,0,0,0,0,0,0,0,-8.2802,-8.2804,0,-8.3048,-8.3051,-8.3053,-8.3073,-8.307,-8.3067,-8.3065,-8.3313,-8.3322,-8.3331,0,0,0,0,0,0,0,0,0,0,0,0,0,-8.2344,-8.2352,-8.2801,-8.2804,-8.2807,-8.3047,-8.3051,-8.3054,-8.3073,-8.307,-8.3067,-8.3064,-8.331,-8.3321,-8.3332,0,0,0,0,0,0,0,0,0,0,0,0,0,-8.2562,-8.2355,-8.2801,-8.2846,-8.2853,-8.3047,-8.3051,-8.3055,-8.3074,-8.307,-8.3066,-8.3062,-8.3306,-8.332,-8.3333,-8.3497,0,0,-8.3375,-8.3381,0,0,0,0,0,0,0,0,-8.2549,-8.2578,-8.2836,-8.2843,-8.2851,-8.3026,-8.2981,-8.3203,-8.3075,-8.299,-8.3065,-8.306,-8.322,-8.3241,-8.3296,-8.3509,-8.352,-8.3376,-8.3384,-8.339,-8.3394,0,0,0,0,0,0,0,-8.2534,-8.2568,-8.2899,-8.284,-8.2849,-8.2853,-8.288,-8.3023,-8.3124,-8.2997,-8.2999,-8.3028,-8.3223,-8.3282,-8.3302,-8.3523,-8.3376,-8.3388,-8.3396,-8.3401,-8.3883,-8.3888,0,0,0,0,0,0,-8.2511,-8.2555,-8.2891,-8.2906,-8.2687,-8.2865,-8.2894,-8.2973,-8.3123,-8.3142,-8.3031,-8.3028,-8.3261,-8.3286,-8.331,-8.3511,-8.339,-8.3403,-8.3411,-8.3879,-8.3884,-8.3889,0,0,0,0,0,0,-8.2501,-8.2541,-8.2881,-8.2732,-8.2775,-8.2877,-8.2966,-8.298,-8.3039,-8.3149,-8.3167,-8.3073,-8.3259,-8.3291,-8.3451,-8.352,-8.3409,-8.3421,-8.3873,-8.388,-8.3887,-8.3914,0,0,0,0,0,0,-8.2488,-8.2537,-8.2601,-8.2733,-8.2783,-8.3018,-8.297,-8.2988,-8.3063,-8.3062,-8.3193,-8.321,-8.3258,-8.343,-8.3464,-8.3536,-8.3432,-8.3867,-8.3876,-8.3885,-8.3907,-8.3921,-8.3932,0,0,0,0,0,-8.2472,-8.2598,-8.2604,-8.2645,-8.2865,-8.3022,-8.305,-8.3104,-8.3069,-8.3133,-8.3204,-8.3206,-8.3508,-8.3447,-8.3485,-8.3562,-8.3863,-8.3874,-8.3884,-8.3901,-8.3918,-8.3932,0,0,0,0,0,0,-8.247,-8.2616,-8.2624,-8.2798,-8.2898,-8.3025,-8.3107,-8.312,-8.3231,-8.3224,-8.3285,-8.3315,-8.3472,-8.3534,-8.3463,-8.3729,-8.3682,-8.37,-8.3682,-8.3698,-8.3711,-8.369,-8.3443,0,0,0,0,0,-8.249,-8.2606,-8.2728,-8.2868,-8.2919,-8.3005,-8.3075,-8.3108,-8.3213,-8.3255,-8.3337,-8.3438,-8.3556,-8.3631,-8.3746,-8.3918,-8.3946,-8.399,-8.4003,-8.4013,-8.4026,-8.4121,-8.4141,-8.3923,-8.3923,-8.3923,0,0,-8.2531,-8.2626,-8.2695,-8.2871,-8.2952,-8.3069,-8.304,-8.3166,-8.3253,-8.3274,-8.3429,-8.3493,-8.361,-8.3776,-8.3854,-8.3833,-8.4094,-8.4026,-8.4033,-8.4042,-8.4133,-8.4154,-8.4172,-8.393,-8.3929,-8.3928,0,0,-8.2666,-8.2751,-8.2877,-8.296,-8.3084,-8.3141,-8.3172,-8.3299,-8.3342,-8.35,-8.3518,-8.3623,-8.3825,-8.3906,-8.3974,-8.4144,-8.415,-8.418,-8.4244,-8.4335,-8.4352,-8.4368,-8.4425,-8.4446,-8.4195,-8.4195,-8.4195,0,-8.2701,-8.2881,-8.294,-8.3066,-8.3141,-8.3169,-8.3296,-8.3373,-8.3527,-8.3579,-8.3554,-8.3808,-8.3889,-8.4074,-8.4115,-8.4171,-8.4206,-8.4163,-8.4346,-8.4362,-8.4377,-8.4432,-8.4454,-8.4197,-8.4197,-8.4197,-8.4197,0,-8.2916,-8.3041,-8.3128,-8.3277,-8.3364,-8.3489,-8.3566,-8.3647,-8.3674,-8.3733,-8.3893,-8.3992,-8.4126,-8.4174,-8.42,-8.4363,-8.4346,-8.4333,-8.4286,-8.4399,-8.4452,-8.4474,-8.4201,-8.42,-8.4199,-8.4199,0,0,-8.3052,-8.3236,-8.3266,-8.3334,-8.3475,-8.3571,-8.3699,-8.3832,-8.3898,-8.4006,-8.4112,-8.4283,-8.4273,-8.435,-8.4388,-8.4468,-8.4593,-8.4446,-8.4449,-8.4466,-8.4775,-8.478,-8.4804,-8.46,-8.4605,-8.4608,-8.4764,0,-8.32,-8.3427,-8.3485,-8.3679,-8.3793,-8.3823,-8.3933,-8.4031,-8.4091,-8.4196,-8.4262,-8.4382,-8.4361,-8.4407,-8.4489,-8.456,-8.4655,-8.4551,-8.4697,-8.4701,-8.4661,-8.4832,-8.4838,-8.498,-8.4786,-8.4789,-8.4792,0,-8.3401,-8.3513,-8.3718,-8.3845,-8.3895,-8.3993,-8.412,-8.4221,-8.4333,-8.4371,-8.4459,-8.4489,-8.4621,-8.4572,-8.4754,-8.4681,-8.4746,-8.479,-8.4797,-8.4809,-8.4749,-8.4844,-8.5028,-8.5047,-8.4826,-8.4823,-8.4821,0,-8.3474,-8.3678,-8.3826,-8.3884,-8.4036,-8.4104,-8.4171,-8.4279,-8.4355,-8.4467,-8.4516,-8.4642,-8.4709,-8.4805,-8.4867,-8.4826,-8.5044,-8.5,-8.5076,-8.5075,-8.5116,-8.5112,-8.5308,-8.5166,-8.5165,-8.5165,-8.5164,0,-8.363,-8.3753,-8.3861,-8.3952,-8.4091,-8.4158,-8.4293,-8.436,-8.4457,-8.456,-8.4595,-8.4691,-8.477,-8.4877,-8.4928,-8.5069,-8.5101,-8.5133,-8.5144,-8.5128,-8.5123,-8.5166,-8.5156,-8.5171,-8.5169,-8.5168,-8.5167,0,-8.3733,-8.3811,-8.3974,-8.4106,-8.4142,-8.4238,-8.435,-8.4439,-8.4502,-8.4633,-8.4667,-8.4765,-8.4893,-8.4967,-8.5128,-8.5161,-8.5318,-8.5327,-8.528,-8.5284,-8.5355,-8.5346,-8.5582,-8.5615,-8.5455,-8.5456,-8.5457,0,-8.3824,-8.392,-8.4063,-8.4136,-8.4203,-8.432,-8.4399,-8.4469,-8.455,-8.4686,-8.4758,-8.4888,-8.4995,-8.5198,-8.5283,-8.5406,-8.5415,-8.549,-8.5434,-8.5414,-8.5412,-8.5403,-8.5412,-8.5497,-8.5499,-8.55,-8.5501,0,-8.3978,-8.4012,-8.4125,-8.4252,-8.4346,-8.4449,-8.4551,-8.4608,-8.4696,-8.4784,-8.4916,-8.5,-8.5166,-8.5294,-8.5425,-8.5492,-8.551,-8.5519,-8.5543,-8.5524,-8.5491,-8.5506,-8.5301,-8.5512,-8.5511,-8.551,-8.5509,-8.5509,-8.4075,-8.4161,-8.4275,-8.44,-8.4485,-8.458,-8.467,-8.4746,-8.4857,-8.4997,-8.5033,-8.5171,-8.5282,-8.546,-8.5531,-8.5639,-8.5626,-8.5661,-8.5669,-8.5675,-8.5675,-8.5479,-8.5664,-8.5664,-8.5663,-8.5663,-8.5663,0,-8.4227,-8.4303,-8.4417,-8.456,-8.4658,-8.4671,-8.4785,-8.4865,-8.4987,-8.509,-8.5196,-8.5347,-8.5472,-8.5569,-8.5697,-8.5765,-8.5776,-8.5796,-8.5789,-8.5803,-8.5682,-8.5647,-8.5784,-8.5784,-8.5784,-8.5784,-8.5784,-8.5784,-8.4317,-8.4462,-8.4511,-8.4699,-8.4774,-8.491,-8.4974,-8.5062,-8.5144,-8.5312,-8.5417,-8.548,-8.5579,-8.5716,-8.5831,-8.5856,-8.59,-8.5917,-8.5942,-8.5826,-8.5812,-8.5799,-8.5767,-8.5927,-8.5927,-8.6055,-8.6056,-8.6057]},{"header":{"parameterUnit":"m.s-1","parameterCategory":1,"la1":30.2991,"la2":30.254,"lo1":-89.0895,"lo2":-89.0444,"dy":0.0017,"dx":0.0017,"nx":28,"ny":28,"refTime":"2024-04-08T09:00:00:Z","depth":0,"parameterNumber":3,"parameterNumberName":"V-component_of_WINDS"},"data":[0,0,0,0,0,0,0,0,0,0,0,0,0,0,0,0,0,0,0,0,0,0,0,0,0,0,0,0,0,0,0,0,0,0,0,0,0,0,0,0,0,0,0,0,0,0,0,0,0,0,0,0,0,0,0,0,0,0,4.3037,4.3038,0,4.3128,4.3129,4.313,4.3153,4.3153,4.3152,4.3152,4.324,4.3242,4.3245,0,0,0,0,0,0,0,0,0,0,0,0,0,4.2881,4.2884,4.3037,4.3038,4.3039,4.3128,4.3129,4.313,4.3153,4.3153,4.3152,4.3151,4.3239,4.3242,4.3246,0,0,0,0,0,0,0,0,0,0,0,0,0,4.2958,4.2884,4.3037,4.3062,4.3065,4.3127,4.3129,4.313,4.3154,4.3153,4.3152,4.3151,4.3238,4.3242,4.3246,4.3289,0,0,4.3259,4.3261,0,0,0,0,0,0,0,0,4.2953,4.2963,4.3057,4.306,4.3064,4.3129,4.3106,4.3183,4.3154,4.312,4.3152,4.3151,4.3203,4.321,4.3229,4.3293,4.3297,4.3259,4.3262,4.3264,4.3265,0,0,0,0,0,0,0,4.2948,4.296,4.3073,4.3058,4.3062,4.3067,4.3077,4.3121,4.3165,4.3123,4.3124,4.3135,4.3205,4.3225,4.3231,4.3298,4.3259,4.3263,4.3266,4.3267,4.3405,4.3406,0,0,0,0,0,0,4.2939,4.2955,4.307,4.3075,4.3005,4.3071,4.3082,4.3108,4.3164,4.3172,4.3136,4.3136,4.3218,4.3226,4.3234,4.329,4.3264,4.3268,4.327,4.3404,4.3405,4.3406,0,0,0,0,0,0,4.2935,4.2949,4.3066,4.3016,4.3031,4.3074,4.3104,4.3111,4.3131,4.3174,4.3182,4.3148,4.3217,4.3228,4.3276,4.3293,4.327,4.3274,4.3402,4.3404,4.3406,4.34,0,0,0,0,0,0,4.2931,4.2947,4.2964,4.3016,4.3034,4.3107,4.3105,4.3113,4.3139,4.314,4.3188,4.3195,4.3218,4.327,4.328,4.3299,4.3277,4.3401,4.3403,4.3405,4.3399,4.3401,4.3403,0,0,0,0,0,4.2925,4.2958,4.2965,4.2979,4.3056,4.3108,4.3118,4.3144,4.314,4.3157,4.3186,4.3194,4.329,4.3274,4.3287,4.3306,4.34,4.3403,4.3405,4.3398,4.3401,4.3403,0,0,0,0,0,0,4.2904,4.2965,4.2974,4.3024,4.3061,4.3112,4.3134,4.3146,4.3184,4.3183,4.3213,4.3224,4.327,4.3293,4.3275,4.3352,4.3345,4.335,4.3335,4.3338,4.3341,4.3334,4.3281,0,0,0,0,0,4.2906,4.2944,4.2994,4.3034,4.3052,4.309,4.3114,4.3132,4.317,4.3185,4.3217,4.3253,4.3292,4.3317,4.3354,4.3403,4.3414,4.3423,4.3425,4.3426,4.343,4.3459,4.3464,4.3414,4.3414,4.3414,0,0,4.2908,4.2947,4.2968,4.3031,4.3061,4.31,4.3103,4.3143,4.3172,4.3191,4.3239,4.3264,4.3306,4.3355,4.3378,4.3376,4.3447,4.343,4.343,4.3433,4.3462,4.3467,4.3471,4.3416,4.3416,4.3415,0,0,4.2934,4.2966,4.3004,4.3036,4.3083,4.3109,4.3118,4.3168,4.3186,4.3236,4.3252,4.3286,4.3351,4.3382,4.3405,4.3446,4.3455,4.3457,4.3469,4.3497,4.3501,4.3504,4.352,4.3525,4.3461,4.3461,4.3461,0,4.2931,4.2991,4.3021,4.3062,4.3089,4.3111,4.315,4.3178,4.3235,4.3253,4.325,4.3335,4.3365,4.3422,4.3433,4.3451,4.3462,4.3451,4.3498,4.3502,4.3506,4.3521,4.3527,4.3461,4.3461,4.3461,4.3461,0,4.2985,4.3027,4.3051,4.3109,4.3139,4.3178,4.3214,4.3241,4.3257,4.3283,4.3334,4.3371,4.3418,4.3433,4.3447,4.3493,4.349,4.3492,4.3486,4.351,4.3525,4.3531,4.3461,4.3461,4.3461,4.3461,0,0,4.2997,4.3074,4.3082,4.311,4.3166,4.3198,4.3238,4.3287,4.331,4.3349,4.3383,4.344,4.3444,4.3471,4.3489,4.3514,4.3546,4.3513,4.3515,4.3519,4.36,4.3598,4.3604,4.3553,4.3554,4.3555,4.3597,0,4.303,4.3105,4.3135,4.3196,4.3235,4.3258,4.3294,4.3332,4.3358,4.3395,4.3423,4.3463,4.3464,4.3481,4.3506,4.3536,4.3563,4.3534,4.3585,4.3587,4.3574,4.3612,4.361,4.3647,4.3603,4.3604,4.3604,0,4.3077,4.312,4.3185,4.3239,4.3257,4.3288,4.3337,4.3371,4.3415,4.3433,4.3465,4.3483,4.3526,4.3518,4.3579,4.3558,4.3581,4.36,4.3602,4.3607,4.3596,4.3619,4.366,4.3665,4.3613,4.3613,4.3612,0,4.3081,4.3154,4.3204,4.3226,4.329,4.3312,4.3339,4.3383,4.3411,4.3452,4.3471,4.3516,4.3541,4.3575,4.3605,4.3596,4.3663,4.3657,4.3679,4.3678,4.3691,4.369,4.3737,4.3706,4.3706,4.3706,4.3705,0,4.3114,4.3153,4.3207,4.3237,4.3282,4.3317,4.336,4.3388,4.3428,4.3464,4.3486,4.3519,4.3556,4.3594,4.3618,4.3665,4.3676,4.3691,4.3696,4.3689,4.3687,4.3704,4.3702,4.3707,4.3707,4.3707,4.3706,0,4.3125,4.3162,4.3218,4.3275,4.3291,4.3321,4.337,4.34,4.3428,4.3474,4.3486,4.353,4.3576,4.361,4.3669,4.3685,4.3736,4.3741,4.3721,4.3724,4.3745,4.3742,4.3804,4.3814,4.3776,4.3776,4.3777,0,4.3144,4.3175,4.3237,4.3264,4.3292,4.3334,4.3364,4.34,4.3429,4.3484,4.3508,4.3556,4.3596,4.3669,4.3705,4.3751,4.3758,4.3776,4.3765,4.3757,4.3759,4.3757,4.3761,4.3778,4.3778,4.3778,4.3778,0,4.3174,4.3192,4.3234,4.3285,4.332,4.3361,4.3402,4.3422,4.3465,4.3497,4.3546,4.3578,4.364,4.3688,4.3738,4.3765,4.3779,4.3782,4.379,4.3782,4.377,4.3778,4.3726,4.378,4.378,4.378,4.378,4.378,4.319,4.322,4.3269,4.3316,4.3352,4.339,4.3422,4.3456,4.3498,4.3553,4.3571,4.3622,4.3667,4.3736,4.3764,4.3804,4.3803,4.3814,4.3816,4.3819,4.3819,4.3764,4.3813,4.3813,4.3813,4.3813,4.3813,0,4.3221,4.3255,4.3299,4.3357,4.3395,4.3407,4.3454,4.3484,4.3529,4.3571,4.3612,4.3669,4.3716,4.3758,4.3807,4.3831,4.3838,4.3842,4.3841,4.3847,4.3816,4.3805,4.3835,4.3835,4.3835,4.3835,4.3835,4.3835,4.3242,4.3294,4.3318,4.3388,4.3421,4.3473,4.3499,4.3535,4.3569,4.3632,4.3672,4.37,4.3742,4.3795,4.3839,4.385,4.3867,4.3869,4.3882,4.3852,4.3849,4.3846,4.3836,4.3873,4.3873,4.391,4.391,4.391]}]]